Year,Month,Day,Hour,Minute,Value (Times are PST for temperature in C)
2011,07,24,00,00,14.20
2011,07,24,00,01,14.20
2011,07,24,00,02,14.20
2011,07,24,00,03,14.20
2011,07,24,00,04,14.20
2011,07,24,00,05,14.20
2011,07,24,00,06,14.20
2011,07,24,00,07,14.20
2011,07,24,00,08,14.20
2011,07,24,00,09,14.20
2011,07,24,00,10,14.20
2011,07,24,00,11,14.20
2011,07,24,00,12,14.20
2011,07,24,00,13,14.20
2011,07,24,00,14,14.20
2011,07,24,00,15,14.20
2011,07,24,00,16,14.20
2011,07,24,00,17,14.20
2011,07,24,00,18,14.20
2011,07,24,00,19,14.20
2011,07,24,00,20,14.20
2011,07,24,00,21,14.20
2011,07,24,00,22,14.20
2011,07,24,00,23,14.20
2011,07,24,00,24,14.20
2011,07,24,00,25,14.20
2011,07,24,00,26,14.20
2011,07,24,00,27,14.20
2011,07,24,00,28,14.10
2011,07,24,00,29,14.10
2011,07,24,00,30,14.10
2011,07,24,00,31,14.10
2011,07,24,00,32,14.10
2011,07,24,00,33,14.10
2011,07,24,00,34,14.00
2011,07,24,00,35,14.00
2011,07,24,00,36,14.00
2011,07,24,00,37,13.90
2011,07,24,00,38,13.90
2011,07,24,00,39,13.90
2011,07,24,00,40,13.90
2011,07,24,00,41,13.80
2011,07,24,00,42,13.80
2011,07,24,00,43,13.80
2011,07,24,00,44,13.70
2011,07,24,00,45,13.70
2011,07,24,00,46,13.70
2011,07,24,00,47,13.70
2011,07,24,00,48,13.70
2011,07,24,00,49,13.70
2011,07,24,00,50,13.70
2011,07,24,00,51,13.70
2011,07,24,00,52,13.70
2011,07,24,00,53,13.70
2011,07,24,00,54,13.70
2011,07,24,00,55,13.70
2011,07,24,00,56,13.70
2011,07,24,00,57,13.70
2011,07,24,00,58,13.60
2011,07,24,00,59,13.60
2011,07,24,01,00,13.60
2011,07,24,01,01,13.60
2011,07,24,01,02,13.60
2011,07,24,01,03,13.50
2011,07,24,01,04,13.50
2011,07,24,01,05,13.50
2011,07,24,01,06,13.50
2011,07,24,01,07,13.50
2011,07,24,01,08,13.50
2011,07,24,01,09,13.50
2011,07,24,01,10,13.50
2011,07,24,01,11,13.50
2011,07,24,01,12,13.50
2011,07,24,01,13,13.50
2011,07,24,01,14,13.50
2011,07,24,01,15,13.50
2011,07,24,01,16,13.50
2011,07,24,01,17,13.50
2011,07,24,01,18,13.50
2011,07,24,01,19,13.50
2011,07,24,01,20,13.50
2011,07,24,01,21,13.50
2011,07,24,01,22,13.40
2011,07,24,01,23,13.40
2011,07,24,01,24,13.40
2011,07,24,01,25,13.40
2011,07,24,01,26,13.40
2011,07,24,01,27,13.40
2011,07,24,01,28,13.40
2011,07,24,01,29,13.30
2011,07,24,01,30,13.30
2011,07,24,01,31,13.30
2011,07,24,01,32,13.30
2011,07,24,01,33,13.30
2011,07,24,01,34,13.30
2011,07,24,01,35,13.20
2011,07,24,01,36,13.20
2011,07,24,01,37,13.10
2011,07,24,01,38,13.10
2011,07,24,01,39,13.10
2011,07,24,01,40,13.00
2011,07,24,01,41,13.00
2011,07,24,01,42,13.00
2011,07,24,01,43,12.90
2011,07,24,01,44,12.90
2011,07,24,01,45,12.90
2011,07,24,01,46,12.90
2011,07,24,01,47,12.90
2011,07,24,01,48,12.90
2011,07,24,01,49,12.90
2011,07,24,01,50,12.90
2011,07,24,01,51,12.80
2011,07,24,01,52,12.80
2011,07,24,01,53,12.80
2011,07,24,01,54,12.80
2011,07,24,01,55,12.80
2011,07,24,01,56,12.80
2011,07,24,01,57,12.80
2011,07,24,01,58,12.70
2011,07,24,01,59,12.70
2011,07,24,02,00,12.70
2011,07,24,02,01,12.70
2011,07,24,02,02,12.70
2011,07,24,02,03,12.70
2011,07,24,02,04,12.70
2011,07,24,02,05,12.60
2011,07,24,02,06,12.60
2011,07,24,02,07,12.60
2011,07,24,02,08,12.60
2011,07,24,02,09,12.50
2011,07,24,02,10,12.50
2011,07,24,02,11,12.50
2011,07,24,02,12,12.50
2011,07,24,02,13,12.50
2011,07,24,02,14,12.50
2011,07,24,02,15,12.50
2011,07,24,02,16,12.40
2011,07,24,02,17,12.40
2011,07,24,02,18,12.40
2011,07,24,02,19,12.50
2011,07,24,02,20,12.50
2011,07,24,02,21,12.50
2011,07,24,02,22,12.50
2011,07,24,02,23,12.50
2011,07,24,02,24,12.50
2011,07,24,02,25,12.60
2011,07,24,02,26,12.60
2011,07,24,02,27,12.60
2011,07,24,02,28,12.60
2011,07,24,02,29,12.60
2011,07,24,02,30,12.60
2011,07,24,02,31,12.50
2011,07,24,02,32,12.50
2011,07,24,02,33,12.50
2011,07,24,02,34,12.50
2011,07,24,02,35,12.50
2011,07,24,02,36,12.50
2011,07,24,02,37,12.50
2011,07,24,02,38,12.40
2011,07,24,02,39,12.40
2011,07,24,02,40,12.40
2011,07,24,02,41,12.40
2011,07,24,02,42,12.40
2011,07,24,02,43,12.40
2011,07,24,02,44,12.40
2011,07,24,02,45,12.40
2011,07,24,02,46,12.40
2011,07,24,02,47,12.30
2011,07,24,02,48,12.30
2011,07,24,02,49,12.40
2011,07,24,02,50,12.40
2011,07,24,02,51,12.40
2011,07,24,02,52,12.40
2011,07,24,02,53,12.40
2011,07,24,02,54,12.40
2011,07,24,02,55,12.40
2011,07,24,02,56,12.40
2011,07,24,02,57,12.30
2011,07,24,02,58,12.30
2011,07,24,02,59,12.30
2011,07,24,03,00,12.30
2011,07,24,03,01,12.30
2011,07,24,03,02,12.30
2011,07,24,03,03,12.30
2011,07,24,03,04,12.30
2011,07,24,03,05,12.30
2011,07,24,03,06,12.30
2011,07,24,03,07,12.30
2011,07,24,03,08,12.30
2011,07,24,03,09,12.30
2011,07,24,03,10,12.30
2011,07,24,03,11,12.30
2011,07,24,03,12,12.30
2011,07,24,03,13,12.30
2011,07,24,03,14,12.30
2011,07,24,03,15,12.20
2011,07,24,03,16,12.20
2011,07,24,03,17,12.20
2011,07,24,03,18,12.20
2011,07,24,03,19,12.20
2011,07,24,03,20,12.10
2011,07,24,03,21,12.10
2011,07,24,03,22,12.10
2011,07,24,03,23,12.10
2011,07,24,03,24,12.10
2011,07,24,03,25,12.00
2011,07,24,03,26,12.00
2011,07,24,03,27,12.00
2011,07,24,03,28,11.90
2011,07,24,03,29,11.90
2011,07,24,03,30,11.90
2011,07,24,03,31,11.80
2011,07,24,03,32,11.80
2011,07,24,03,33,11.80
2011,07,24,03,34,11.80
2011,07,24,03,35,11.80
2011,07,24,03,36,11.80
2011,07,24,03,37,11.80
2011,07,24,03,38,11.80
2011,07,24,03,39,11.80
2011,07,24,03,40,11.80
2011,07,24,03,41,11.80
2011,07,24,03,42,11.70
2011,07,24,03,43,11.70
2011,07,24,03,44,11.70
2011,07,24,03,45,11.70
2011,07,24,03,46,11.70
2011,07,24,03,47,11.70
2011,07,24,03,48,11.70
2011,07,24,03,49,11.70
2011,07,24,03,50,11.60
2011,07,24,03,51,11.60
2011,07,24,03,52,11.60
2011,07,24,03,53,11.60
2011,07,24,03,54,11.60
2011,07,24,03,55,11.60
2011,07,24,03,56,11.60
2011,07,24,03,57,11.60
2011,07,24,03,58,11.70
2011,07,24,03,59,11.70
2011,07,24,04,00,11.70
2011,07,24,04,01,11.70
2011,07,24,04,02,11.70
2011,07,24,04,03,11.70
2011,07,24,04,04,11.70
2011,07,24,04,05,11.70
2011,07,24,04,06,11.70
2011,07,24,04,07,11.70
2011,07,24,04,08,11.70
2011,07,24,04,09,11.70
2011,07,24,04,10,11.70
2011,07,24,04,11,11.70
2011,07,24,04,12,11.70
2011,07,24,04,13,11.60
2011,07,24,04,14,11.60
2011,07,24,04,15,11.60
2011,07,24,04,16,11.60
2011,07,24,04,17,11.70
2011,07,24,04,18,11.70
2011,07,24,04,19,11.70
2011,07,24,04,20,11.80
2011,07,24,04,21,11.80
2011,07,24,04,22,11.80
2011,07,24,04,23,11.80
2011,07,24,04,24,11.80
2011,07,24,04,25,11.80
2011,07,24,04,26,11.80
2011,07,24,04,27,11.80
2011,07,24,04,28,11.80
2011,07,24,04,29,11.80
2011,07,24,04,30,11.80
2011,07,24,04,31,11.70
2011,07,24,04,32,11.70
2011,07,24,04,33,11.70
2011,07,24,04,34,11.70
2011,07,24,04,35,11.70
2011,07,24,04,36,11.80
2011,07,24,04,37,11.80
2011,07,24,04,38,11.80
2011,07,24,04,39,11.80
2011,07,24,04,40,11.80
2011,07,24,04,41,11.80
2011,07,24,04,42,11.80
2011,07,24,04,43,11.90
2011,07,24,04,44,11.90
2011,07,24,04,45,11.90
2011,07,24,04,46,11.90
2011,07,24,04,47,11.90
2011,07,24,04,48,11.90
2011,07,24,04,49,11.90
2011,07,24,04,50,11.90
2011,07,24,04,51,11.90
2011,07,24,04,52,11.80
2011,07,24,04,53,11.80
2011,07,24,04,54,11.80
2011,07,24,04,55,11.80
2011,07,24,04,56,11.80
2011,07,24,04,57,11.80
2011,07,24,04,58,11.80
2011,07,24,04,59,11.80
2011,07,24,05,00,11.80
2011,07,24,05,01,11.80
2011,07,24,05,02,11.80
2011,07,24,05,03,11.80
2011,07,24,05,04,11.80
2011,07,24,05,05,11.80
2011,07,24,05,06,11.80
2011,07,24,05,07,11.80
2011,07,24,05,08,11.80
2011,07,24,05,09,11.80
2011,07,24,05,10,11.80
2011,07,24,05,11,11.80
2011,07,24,05,12,11.80
2011,07,24,05,13,11.70
2011,07,24,05,14,11.70
2011,07,24,05,15,11.60
2011,07,24,05,16,11.60
2011,07,24,05,17,11.50
2011,07,24,05,18,11.40
2011,07,24,05,19,11.40
2011,07,24,05,20,11.40
2011,07,24,05,21,11.40
2011,07,24,05,22,11.30
2011,07,24,05,23,11.30
2011,07,24,05,24,11.20
2011,07,24,05,25,11.20
2011,07,24,05,26,11.20
2011,07,24,05,27,11.20
2011,07,24,05,28,11.20
2011,07,24,05,29,11.20
2011,07,24,05,30,11.30
2011,07,24,05,31,11.30
2011,07,24,05,32,11.30
2011,07,24,05,33,11.30
2011,07,24,05,34,11.40
2011,07,24,05,35,11.40
2011,07,24,05,36,11.40
2011,07,24,05,37,11.40
2011,07,24,05,38,11.50
2011,07,24,05,39,11.60
2011,07,24,05,40,11.60
2011,07,24,05,41,11.60
2011,07,24,05,42,11.60
2011,07,24,05,43,11.60
2011,07,24,05,44,11.60
2011,07,24,05,45,11.60
2011,07,24,05,46,11.60
2011,07,24,05,47,11.60
2011,07,24,05,48,11.60
2011,07,24,05,49,11.60
2011,07,24,05,50,11.60
2011,07,24,05,51,11.60
2011,07,24,05,52,11.60
2011,07,24,05,53,11.60
2011,07,24,05,54,11.60
2011,07,24,05,55,11.60
2011,07,24,05,56,11.60
2011,07,24,05,57,11.60
2011,07,24,05,58,11.60
2011,07,24,05,59,11.60
2011,07,24,06,00,11.60
2011,07,24,06,01,11.60
2011,07,24,06,02,11.60
2011,07,24,06,03,11.60
2011,07,24,06,04,11.60
2011,07,24,06,05,11.60
2011,07,24,06,06,11.60
2011,07,24,06,07,11.60
2011,07,24,06,08,11.60
2011,07,24,06,09,11.60
2011,07,24,06,10,11.60
2011,07,24,06,11,11.60
2011,07,24,06,12,11.70
2011,07,24,06,13,11.70
2011,07,24,06,14,11.70
2011,07,24,06,15,11.70
2011,07,24,06,16,11.70
2011,07,24,06,17,11.70
2011,07,24,06,18,11.70
2011,07,24,06,19,11.70
2011,07,24,06,20,11.70
2011,07,24,06,21,11.80
2011,07,24,06,22,11.80
2011,07,24,06,23,11.80
2011,07,24,06,24,11.80
2011,07,24,06,25,11.80
2011,07,24,06,26,11.80
2011,07,24,06,27,11.90
2011,07,24,06,28,11.90
2011,07,24,06,29,11.90
2011,07,24,06,30,12.00
2011,07,24,06,31,12.00
2011,07,24,06,32,12.00
2011,07,24,06,33,12.00
2011,07,24,06,34,12.00
2011,07,24,06,35,12.10
2011,07,24,06,36,12.10
2011,07,24,06,37,12.10
2011,07,24,06,38,12.10
2011,07,24,06,39,12.20
2011,07,24,06,40,12.20
2011,07,24,06,41,12.20
2011,07,24,06,42,12.30
2011,07,24,06,43,12.30
2011,07,24,06,44,12.30
2011,07,24,06,45,12.30
2011,07,24,06,46,12.30
2011,07,24,06,47,12.40
2011,07,24,06,48,12.50
2011,07,24,06,49,12.50
2011,07,24,06,50,12.60
2011,07,24,06,51,12.60
2011,07,24,06,52,12.60
2011,07,24,06,53,12.70
2011,07,24,06,54,12.70
2011,07,24,06,55,12.70
2011,07,24,06,56,12.80
2011,07,24,06,57,12.80
2011,07,24,06,58,12.80
2011,07,24,06,59,12.80
2011,07,24,07,00,12.90
2011,07,24,07,01,12.90
2011,07,24,07,02,12.90
2011,07,24,07,03,13.00
2011,07,24,07,04,13.00
2011,07,24,07,05,13.10
2011,07,24,07,06,13.10
2011,07,24,07,07,13.10
2011,07,24,07,08,13.20
2011,07,24,07,09,13.20
2011,07,24,07,10,13.30
2011,07,24,07,11,13.30
2011,07,24,07,12,13.30
2011,07,24,07,13,13.40
2011,07,24,07,14,13.50
2011,07,24,07,15,13.50
2011,07,24,07,16,13.60
2011,07,24,07,17,13.60
2011,07,24,07,18,13.70
2011,07,24,07,19,13.70
2011,07,24,07,20,13.80
2011,07,24,07,21,13.90
2011,07,24,07,22,13.90
2011,07,24,07,23,14.00
2011,07,24,07,24,14.10
2011,07,24,07,25,14.20
2011,07,24,07,26,14.20
2011,07,24,07,27,14.20
2011,07,24,07,28,14.30
2011,07,24,07,29,14.40
2011,07,24,07,30,14.40
2011,07,24,07,31,14.50
2011,07,24,07,32,14.60
2011,07,24,07,33,14.70
2011,07,24,07,34,14.80
2011,07,24,07,35,15.00
2011,07,24,07,36,15.10
2011,07,24,07,37,15.30
2011,07,24,07,38,15.50
2011,07,24,07,39,15.70
2011,07,24,07,40,15.80
2011,07,24,07,41,16.00
2011,07,24,07,42,16.10
2011,07,24,07,43,16.30
2011,07,24,07,44,16.40
2011,07,24,07,45,16.50
2011,07,24,07,46,16.70
2011,07,24,07,47,16.80
2011,07,24,07,48,16.90
2011,07,24,07,49,16.90
2011,07,24,07,50,17.00
2011,07,24,07,51,17.00
2011,07,24,07,52,17.10
2011,07,24,07,53,17.20
2011,07,24,07,54,17.30
2011,07,24,07,55,17.30
2011,07,24,07,56,17.30
2011,07,24,07,57,17.40
2011,07,24,07,58,17.40
2011,07,24,07,59,17.50
2011,07,24,08,00,17.50
2011,07,24,08,01,17.60
2011,07,24,08,02,17.70
2011,07,24,08,03,17.80
2011,07,24,08,04,17.90
2011,07,24,08,05,17.90
2011,07,24,08,06,18.00
2011,07,24,08,07,18.10
2011,07,24,08,08,18.20
2011,07,24,08,09,18.20
2011,07,24,08,10,18.30
2011,07,24,08,11,18.30
2011,07,24,08,12,18.40
2011,07,24,08,13,18.50
2011,07,24,08,14,18.60
2011,07,24,08,15,18.70
2011,07,24,08,16,18.70
2011,07,24,08,17,18.80
2011,07,24,08,18,18.90
2011,07,24,08,19,18.90
2011,07,24,08,20,19.10
2011,07,24,08,21,19.10
2011,07,24,08,22,19.10
2011,07,24,08,23,19.10
2011,07,24,08,24,19.10
2011,07,24,08,25,19.20
2011,07,24,08,26,19.20
2011,07,24,08,27,19.30
2011,07,24,08,28,19.40
2011,07,24,08,29,19.40
2011,07,24,08,30,19.50
2011,07,24,08,31,19.50
2011,07,24,08,32,19.60
2011,07,24,08,33,19.70
2011,07,24,08,34,19.80
2011,07,24,08,35,19.80
2011,07,24,08,36,19.90
2011,07,24,08,37,19.90
2011,07,24,08,38,20.00
2011,07,24,08,39,20.10
2011,07,24,08,40,20.20
2011,07,24,08,41,20.20
2011,07,24,08,42,20.20
2011,07,24,08,43,20.20
2011,07,24,08,44,20.20
2011,07,24,08,45,20.20
2011,07,24,08,46,20.20
2011,07,24,08,47,20.20
2011,07,24,08,48,20.20
2011,07,24,08,49,20.20
2011,07,24,08,50,20.20
2011,07,24,08,51,20.30
2011,07,24,08,52,20.30
2011,07,24,08,53,20.30
2011,07,24,08,54,20.30
2011,07,24,08,55,20.40
2011,07,24,08,56,20.50
2011,07,24,08,57,20.50
2011,07,24,08,58,20.40
2011,07,24,08,59,20.40
2011,07,24,09,00,20.30
2011,07,24,09,01,20.30
2011,07,24,09,02,20.30
2011,07,24,09,03,20.30
2011,07,24,09,04,20.30
2011,07,24,09,05,20.40
2011,07,24,09,06,20.30
2011,07,24,09,07,20.30
2011,07,24,09,08,20.30
2011,07,24,09,09,20.40
2011,07,24,09,10,20.50
2011,07,24,09,11,20.50
2011,07,24,09,12,20.60
2011,07,24,09,13,20.60
2011,07,24,09,14,20.70
2011,07,24,09,15,20.80
2011,07,24,09,16,20.90
2011,07,24,09,17,20.90
2011,07,24,09,18,20.80
2011,07,24,09,19,20.80
2011,07,24,09,20,20.80
2011,07,24,09,21,20.70
2011,07,24,09,22,20.70
2011,07,24,09,23,20.80
2011,07,24,09,24,20.80
2011,07,24,09,25,20.90
2011,07,24,09,26,20.90
2011,07,24,09,27,21.00
2011,07,24,09,28,21.00
2011,07,24,09,29,21.10
2011,07,24,09,30,21.20
2011,07,24,09,31,21.20
2011,07,24,09,32,21.20
2011,07,24,09,33,21.30
2011,07,24,09,34,21.20
2011,07,24,09,35,21.20
2011,07,24,09,36,21.20
2011,07,24,09,37,21.30
2011,07,24,09,38,21.30
2011,07,24,09,39,21.30
2011,07,24,09,40,21.30
2011,07,24,09,41,21.30
2011,07,24,09,42,21.20
2011,07,24,09,43,21.20
2011,07,24,09,44,21.20
2011,07,24,09,45,21.10
2011,07,24,09,46,21.10
2011,07,24,09,47,21.10
2011,07,24,09,48,21.10
2011,07,24,09,49,21.20
2011,07,24,09,50,21.20
2011,07,24,09,51,21.30
2011,07,24,09,52,21.40
2011,07,24,09,53,21.50
2011,07,24,09,54,21.60
2011,07,24,09,55,21.70
2011,07,24,09,56,21.90
2011,07,24,09,57,22.00
2011,07,24,09,58,22.00
2011,07,24,09,59,22.10
2011,07,24,10,00,22.10
2011,07,24,10,01,22.10
2011,07,24,10,02,22.10
2011,07,24,10,03,22.00
2011,07,24,10,04,22.00
2011,07,24,10,05,22.00
2011,07,24,10,06,22.00
2011,07,24,10,07,22.10
2011,07,24,10,08,22.10
2011,07,24,10,09,22.20
2011,07,24,10,10,22.20
2011,07,24,10,11,22.20
2011,07,24,10,12,22.30
2011,07,24,10,13,22.30
2011,07,24,10,14,22.40
2011,07,24,10,15,22.50
2011,07,24,10,16,22.50
2011,07,24,10,17,22.60
2011,07,24,10,18,22.70
2011,07,24,10,19,22.80
2011,07,24,10,20,22.90
2011,07,24,10,21,22.90
2011,07,24,10,22,23.00
2011,07,24,10,23,23.10
2011,07,24,10,24,23.10
2011,07,24,10,25,23.20
2011,07,24,10,26,23.20
2011,07,24,10,27,23.20
2011,07,24,10,28,23.20
2011,07,24,10,29,23.10
2011,07,24,10,30,23.00
2011,07,24,10,31,22.90
2011,07,24,10,32,22.90
2011,07,24,10,33,22.90
2011,07,24,10,34,23.00
2011,07,24,10,35,23.10
2011,07,24,10,36,23.10
2011,07,24,10,37,23.20
2011,07,24,10,38,23.10
2011,07,24,10,39,23.10
2011,07,24,10,40,23.10
2011,07,24,10,41,23.10
2011,07,24,10,42,23.10
2011,07,24,10,43,23.20
2011,07,24,10,44,23.30
2011,07,24,10,45,23.30
2011,07,24,10,46,23.30
2011,07,24,10,47,23.30
2011,07,24,10,48,23.30
2011,07,24,10,49,23.30
2011,07,24,10,50,23.40
2011,07,24,10,51,23.50
2011,07,24,10,52,23.40
2011,07,24,10,53,23.40
2011,07,24,10,54,23.40
2011,07,24,10,55,23.50
2011,07,24,10,56,23.60
2011,07,24,10,57,23.60
2011,07,24,10,58,23.40
2011,07,24,10,59,23.40
2011,07,24,11,00,23.30
2011,07,24,11,01,23.30
2011,07,24,11,02,23.20
2011,07,24,11,03,23.20
2011,07,24,11,04,23.20
2011,07,24,11,05,23.10
2011,07,24,11,06,23.10
2011,07,24,11,07,23.10
2011,07,24,11,08,23.20
2011,07,24,11,09,23.20
2011,07,24,11,10,23.30
2011,07,24,11,11,23.40
2011,07,24,11,12,23.50
2011,07,24,11,13,23.60
2011,07,24,11,14,23.60
2011,07,24,11,15,23.60
2011,07,24,11,16,23.70
2011,07,24,11,17,23.70
2011,07,24,11,18,23.70
2011,07,24,11,19,23.70
2011,07,24,11,20,23.70
2011,07,24,11,21,23.80
2011,07,24,11,22,23.80
2011,07,24,11,23,23.80
2011,07,24,11,24,23.80
2011,07,24,11,25,23.70
2011,07,24,11,26,23.70
2011,07,24,11,27,23.70
2011,07,24,11,28,23.70
2011,07,24,11,29,23.70
2011,07,24,11,30,23.60
2011,07,24,11,31,23.50
2011,07,24,11,32,23.40
2011,07,24,11,33,23.30
2011,07,24,11,34,23.30
2011,07,24,11,35,23.30
2011,07,24,11,36,23.30
2011,07,24,11,37,23.30
2011,07,24,11,38,23.30
2011,07,24,11,39,23.30
2011,07,24,11,40,23.40
2011,07,24,11,41,23.40
2011,07,24,11,42,23.40
2011,07,24,11,43,23.50
2011,07,24,11,44,23.60
2011,07,24,11,45,23.70
2011,07,24,11,46,23.70
2011,07,24,11,47,23.80
2011,07,24,11,48,24.00
2011,07,24,11,49,24.10
2011,07,24,11,50,24.10
2011,07,24,11,51,24.20
2011,07,24,11,52,24.20
2011,07,24,11,53,24.10
2011,07,24,11,54,23.90
2011,07,24,11,55,23.80
2011,07,24,11,56,23.80
2011,07,24,11,57,23.70
2011,07,24,11,58,23.70
2011,07,24,11,59,23.70
2011,07,24,12,00,23.60
2011,07,24,12,01,23.60
2011,07,24,12,02,23.60
2011,07,24,12,03,23.70
2011,07,24,12,04,23.70
2011,07,24,12,05,23.80
2011,07,24,12,06,23.80
2011,07,24,12,07,23.90
2011,07,24,12,08,23.90
2011,07,24,12,09,23.80
2011,07,24,12,10,23.70
2011,07,24,12,11,23.70
2011,07,24,12,12,23.70
2011,07,24,12,13,23.70
2011,07,24,12,14,23.80
2011,07,24,12,15,23.90
2011,07,24,12,16,24.00
2011,07,24,12,17,24.10
2011,07,24,12,18,24.10
2011,07,24,12,19,24.20
2011,07,24,12,20,24.20
2011,07,24,12,21,24.20
2011,07,24,12,22,24.20
2011,07,24,12,23,24.20
2011,07,24,12,24,24.30
2011,07,24,12,25,24.40
2011,07,24,12,26,24.40
2011,07,24,12,27,24.40
2011,07,24,12,28,24.40
2011,07,24,12,29,24.30
2011,07,24,12,30,24.30
2011,07,24,12,31,24.30
2011,07,24,12,32,24.30
2011,07,24,12,33,24.40
2011,07,24,12,34,24.50
2011,07,24,12,35,24.50
2011,07,24,12,36,24.60
2011,07,24,12,37,24.70
2011,07,24,12,38,24.70
2011,07,24,12,39,24.70
2011,07,24,12,40,24.70
2011,07,24,12,41,24.70
2011,07,24,12,42,24.70
2011,07,24,12,43,24.70
2011,07,24,12,44,24.60
2011,07,24,12,45,24.60
2011,07,24,12,46,24.60
2011,07,24,12,47,24.60
2011,07,24,12,48,24.60
2011,07,24,12,49,24.60
2011,07,24,12,50,24.70
2011,07,24,12,51,24.70
2011,07,24,12,52,24.70
2011,07,24,12,53,24.70
2011,07,24,12,54,24.80
2011,07,24,12,55,24.90
2011,07,24,12,56,25.00
2011,07,24,12,57,25.00
2011,07,24,12,58,25.00
2011,07,24,12,59,24.90
2011,07,24,13,00,24.90
2011,07,24,13,01,24.80
2011,07,24,13,02,24.80
2011,07,24,13,03,24.80
2011,07,24,13,04,24.80
2011,07,24,13,05,24.80
2011,07,24,13,06,24.80
2011,07,24,13,07,24.90
2011,07,24,13,08,24.90
2011,07,24,13,09,25.00
2011,07,24,13,10,25.10
2011,07,24,13,11,25.30
2011,07,24,13,12,25.40
2011,07,24,13,13,25.50
2011,07,24,13,14,25.60
2011,07,24,13,15,25.60
2011,07,24,13,16,25.80
2011,07,24,13,17,26.00
2011,07,24,13,18,26.10
2011,07,24,13,19,26.20
2011,07,24,13,20,26.20
2011,07,24,13,21,26.30
2011,07,24,13,22,26.50
2011,07,24,13,23,26.60
2011,07,24,13,24,26.60
2011,07,24,13,25,26.50
2011,07,24,13,26,26.50
2011,07,24,13,27,26.60
2011,07,24,13,28,26.60
2011,07,24,13,29,26.60
2011,07,24,13,30,26.60
2011,07,24,13,31,26.60
2011,07,24,13,32,26.60
2011,07,24,13,33,26.60
2011,07,24,13,34,26.60
2011,07,24,13,35,26.60
2011,07,24,13,36,26.70
2011,07,24,13,37,26.70
2011,07,24,13,38,26.80
2011,07,24,13,39,26.80
2011,07,24,13,40,26.80
2011,07,24,13,41,26.90
2011,07,24,13,42,26.90
2011,07,24,13,43,27.00
2011,07,24,13,44,27.10
2011,07,24,13,45,27.20
2011,07,24,13,46,27.20
2011,07,24,13,47,27.30
2011,07,24,13,48,27.30
2011,07,24,13,49,27.40
2011,07,24,13,50,27.40
2011,07,24,13,51,27.40
2011,07,24,13,52,27.40
2011,07,24,13,53,27.50
2011,07,24,13,54,27.60
2011,07,24,13,55,27.70
2011,07,24,13,56,27.80
2011,07,24,13,57,27.80
2011,07,24,13,58,27.80
2011,07,24,13,59,27.80
2011,07,24,14,00,27.80
2011,07,24,14,01,27.90
2011,07,24,14,02,27.90
2011,07,24,14,03,27.90
2011,07,24,14,04,27.70
2011,07,24,14,05,27.60
2011,07,24,14,06,27.50
2011,07,24,14,07,27.30
2011,07,24,14,08,27.20
2011,07,24,14,09,27.00
2011,07,24,14,10,26.70
2011,07,24,14,11,26.50
2011,07,24,14,12,26.20
2011,07,24,14,13,25.90
2011,07,24,14,14,25.60
2011,07,24,14,15,25.40
2011,07,24,14,16,25.30
2011,07,24,14,17,25.00
2011,07,24,14,18,24.90
2011,07,24,14,19,24.70
2011,07,24,14,20,24.50
2011,07,24,14,21,24.40
2011,07,24,14,22,24.30
2011,07,24,14,23,24.20
2011,07,24,14,24,24.10
2011,07,24,14,25,24.10
2011,07,24,14,26,24.10
2011,07,24,14,27,24.00
2011,07,24,14,28,23.90
2011,07,24,14,29,23.90
2011,07,24,14,30,23.90
2011,07,24,14,31,23.90
2011,07,24,14,32,23.90
2011,07,24,14,33,23.90
2011,07,24,14,34,23.90
2011,07,24,14,35,23.90
2011,07,24,14,36,23.90
2011,07,24,14,37,23.80
2011,07,24,14,38,23.70
2011,07,24,14,39,23.80
2011,07,24,14,40,23.80
2011,07,24,14,41,23.60
2011,07,24,14,42,23.40
2011,07,24,14,43,23.30
2011,07,24,14,44,23.30
2011,07,24,14,45,23.40
2011,07,24,14,46,23.40
2011,07,24,14,47,23.60
2011,07,24,14,48,23.70
2011,07,24,14,49,23.60
2011,07,24,14,50,23.50
2011,07,24,14,51,23.40
2011,07,24,14,52,23.30
2011,07,24,14,53,23.30
2011,07,24,14,54,23.30
2011,07,24,14,55,23.30
2011,07,24,14,56,23.30
2011,07,24,14,57,23.30
2011,07,24,14,58,23.30
2011,07,24,14,59,23.30
2011,07,24,15,00,23.30
2011,07,24,15,01,23.20
2011,07,24,15,02,23.30
2011,07,24,15,03,23.40
2011,07,24,15,04,23.30
2011,07,24,15,05,23.30
2011,07,24,15,06,23.30
2011,07,24,15,07,23.30
2011,07,24,15,08,23.30
2011,07,24,15,09,23.30
2011,07,24,15,10,23.30
2011,07,24,15,11,23.30
2011,07,24,15,12,23.50
2011,07,24,15,13,23.70
2011,07,24,15,14,23.80
2011,07,24,15,15,23.90
2011,07,24,15,16,23.90
2011,07,24,15,17,23.90
2011,07,24,15,18,23.90
2011,07,24,15,19,24.00
2011,07,24,15,20,24.10
2011,07,24,15,21,24.10
2011,07,24,15,22,24.10
2011,07,24,15,23,24.10
2011,07,24,15,24,24.10
2011,07,24,15,25,24.20
2011,07,24,15,26,24.20
2011,07,24,15,27,24.10
2011,07,24,15,28,24.10
2011,07,24,15,29,23.90
2011,07,24,15,30,23.70
2011,07,24,15,31,23.60
2011,07,24,15,32,23.50
2011,07,24,15,33,23.60
2011,07,24,15,34,23.60
2011,07,24,15,35,23.60
2011,07,24,15,36,23.60
2011,07,24,15,37,23.60
2011,07,24,15,38,23.60
2011,07,24,15,39,23.60
2011,07,24,15,40,23.70
2011,07,24,15,41,23.70
2011,07,24,15,42,23.70
2011,07,24,15,43,23.80
2011,07,24,15,44,23.90
2011,07,24,15,45,24.00
2011,07,24,15,46,24.10
2011,07,24,15,47,24.20
2011,07,24,15,48,24.20
2011,07,24,15,49,24.30
2011,07,24,15,50,24.30
2011,07,24,15,51,24.30
2011,07,24,15,52,24.10
2011,07,24,15,53,24.10
2011,07,24,15,54,23.90
2011,07,24,15,55,23.90
2011,07,24,15,56,23.80
2011,07,24,15,57,23.80
2011,07,24,15,58,23.90
2011,07,24,15,59,23.80
2011,07,24,16,00,23.90
2011,07,24,16,01,23.90
2011,07,24,16,02,24.00
2011,07,24,16,03,24.10
2011,07,24,16,04,24.10
2011,07,24,16,05,24.30
2011,07,24,16,06,24.40
2011,07,24,16,07,24.50
2011,07,24,16,08,24.60
2011,07,24,16,09,24.70
2011,07,24,16,10,24.80
2011,07,24,16,11,24.90
2011,07,24,16,12,25.20
2011,07,24,16,13,25.30
2011,07,24,16,14,25.40
2011,07,24,16,15,25.40
2011,07,24,16,16,25.40
2011,07,24,16,17,25.30
2011,07,24,16,18,25.30
2011,07,24,16,19,25.20
2011,07,24,16,20,25.10
2011,07,24,16,21,25.00
2011,07,24,16,22,25.00
2011,07,24,16,23,25.10
2011,07,24,16,24,25.10
2011,07,24,16,25,25.10
2011,07,24,16,26,25.10
2011,07,24,16,27,25.20
2011,07,24,16,28,25.20
2011,07,24,16,29,25.20
2011,07,24,16,30,25.30
2011,07,24,16,31,25.30
2011,07,24,16,32,25.40
2011,07,24,16,33,25.40
2011,07,24,16,34,25.60
2011,07,24,16,35,25.80
2011,07,24,16,36,25.90
2011,07,24,16,37,26.00
2011,07,24,16,38,26.10
2011,07,24,16,39,26.10
2011,07,24,16,40,26.20
2011,07,24,16,41,26.20
2011,07,24,16,42,26.30
2011,07,24,16,43,26.30
2011,07,24,16,44,26.40
2011,07,24,16,45,26.40
2011,07,24,16,46,26.40
2011,07,24,16,47,26.40
2011,07,24,16,48,26.40
2011,07,24,16,49,26.30
2011,07,24,16,50,26.20
2011,07,24,16,51,26.30
2011,07,24,16,52,26.10
2011,07,24,16,53,25.90
2011,07,24,16,54,25.70
2011,07,24,16,55,25.50
2011,07,24,16,56,25.50
2011,07,24,16,57,25.40
2011,07,24,16,58,25.50
2011,07,24,16,59,25.50
2011,07,24,17,00,25.50
2011,07,24,17,01,25.50
2011,07,24,17,02,25.50
2011,07,24,17,03,25.60
2011,07,24,17,04,25.60
2011,07,24,17,05,25.40
2011,07,24,17,06,25.30
2011,07,24,17,07,25.20
2011,07,24,17,08,25.20
2011,07,24,17,09,25.20
2011,07,24,17,10,25.30
2011,07,24,17,11,25.30
2011,07,24,17,12,25.40
2011,07,24,17,13,25.50
2011,07,24,17,14,25.50
2011,07,24,17,15,25.60
2011,07,24,17,16,25.60
2011,07,24,17,17,25.60
2011,07,24,17,18,25.60
2011,07,24,17,19,25.50